Montgomery, AL

7:39 PM CST on February 05, 2016 (GMT -0600)
Maxwell Air Force Base

Weather History for KMXF - December, 2013

Change the Weather History Date:

Wednesday, December 18, 2013

  Actual Average Record
Temperature  
Mean Temperature 44 °F -  
Max Temperature 58 °F 57 °F 77 °F (2006)
Min Temperature 31 °F 38 °F 23 °F (2000)
Degree Days  
Heating Degree Days 20    
Moisture  
Dew Point 33 °F    
Average Humidity 74    
Maximum Humidity 100    
Minimum Humidity 30    
Precipitation  
Precipitation 0.00 in - - ()
Sea Level Pressure  
Sea Level Pressure 30.33 in    
Wind  
Wind Speed 3 mph (NE)    
Max Wind Speed 7 mph    
Max Gust Speed -    
Visibility 8 miles    
Events      
Averages and records for this station are not official NWS values.
T = Trace of Precipitation, MM = Missing Value Source: NWS Daily Summary

Daily Weather History Graph

Daily Weather History Graph

Search for Another Location

Airport or City:

Trip Planner

Search our weather history database for the weather conditions in past years. The results will help you decide how hot, cold, wet, or windy it might be!

Date:

Astronomy

Dec. 18, 2013 Rise Set
Actual Time 6:41 AM CST 4:43 PM CST
Civil Twilight 6:14 AM CST 5:10 PM CST
Nautical Twilight 5:43 AM CST 5:40 PM CST
Astronomical Twilight 5:13 AM CST 6:10 PM CST
Moon 6:09 PM CST (12/18) 7:24 AM CST (12/18)
Length of Visible Light 10h 56m
Length of Day
10h 01m
Full, 98% of the Moon is Illuminated
Dec 18
Full
Dec 25
Last Quarter
Jan 1
New
Jan 7
First Quarter
Jan 15
Full

Hourly Weather History & Observations

Time (CST) Temp. Windchill Dew Point Humidity Pressure Visibility Wind Dir Wind Speed Gust Speed Precip Events Conditions
12:58 AM 41.0 °F 37.1 °F 37.2 °F 86% 30.27 in 9.0 mi WNW 5.8 mph - N/A   Clear
1:58 AM 43.5 °F 39.4 °F 37.2 °F 78% 30.28 in 10.0 mi NNW 6.9 mph - N/A   Clear
2:58 AM 37.8 °F 34.2 °F 34.3 °F 87% 30.29 in 8.0 mi North 4.6 mph - N/A   Clear
3:58 AM 36.3 °F - 34.0 °F 91% 30.30 in 6.0 mi NNW 2.3 mph - N/A   Clear
4:58 AM 36.0 °F - 34.9 °F 96% 30.31 in 10.0 mi NNW 2.3 mph - N/A   Clear
5:58 AM 32.5 °F - 31.8 °F 97% 30.33 in 5.0 mi Calm Calm - N/A   Clear
6:38 AM 32.0 °F - 32.0 °F 100% 30.34 in 2.5 mi South 2.3 mph - N/A   Clear
6:43 AM 32.0 °F - 32.0 °F 100% 30.34 in 1.5 mi South 2.3 mph - N/A   Clear
6:48 AM 32.0 °F - 32.0 °F 100% 30.34 in 1.8 mi SSE 2.3 mph - N/A   Clear
6:58 AM 31.5 °F - 30.9 °F 98% 30.35 in 2.5 mi SE 1.2 mph - N/A   Clear
7:03 AM 32.0 °F - 32.0 °F 100% 30.34 in 1.8 mi SSE 1.2 mph - N/A   Clear
7:13 AM 32.0 °F - 32.0 °F 100% 30.35 in 3.0 mi Calm Calm - N/A   Clear
7:58 AM 38.8 °F - 36.7 °F 92% 30.38 in 5.0 mi Calm Calm - N/A   Clear
8:58 AM 45.7 °F 43.4 °F 36.1 °F 69% 30.40 in 10.0 mi NE 4.6 mph - N/A   Clear
9:58 AM 49.8 °F - 31.8 °F 50% 30.41 in 10.0 mi NE 5.8 mph - N/A   Clear
10:58 AM 51.3 °F - 29.7 °F 44% 30.39 in 7.0 mi Variable 3.5 mph - N/A   Clear
11:58 AM 54.1 °F - 28.9 °F 38% 30.37 in 10.0 mi Variable 2.3 mph - N/A   Clear
12:58 PM 56.8 °F - 28.6 °F 34% 30.34 in 10.0 mi ENE 5.8 mph - N/A   Clear
1:18 PM 57.2 °F - 28.4 °F 33% 30.32 in 10.0 mi Variable 3.5 mph - N/A   Clear
1:58 PM 57.7 °F - 27.3 °F 31% 30.32 in 10.0 mi Variable 1.2 mph - N/A   Clear
2:58 PM 58.3 °F - 27.0 °F 30% 30.30 in 10.0 mi Variable 1.2 mph - N/A   Clear
3:58 PM 57.9 °F - 26.8 °F 30% 30.31 in 10.0 mi East 2.3 mph - N/A   Clear
4:58 PM 52.0 °F - 33.3 °F 49% 30.30 in 10.0 mi Calm Calm - N/A   Clear
5:58 PM 45.3 °F - 34.2 °F 65% 30.30 in 10.0 mi West 1.2 mph - N/A   Clear
6:58 PM 40.6 °F - 34.0 °F 77% 30.30 in 10.0 mi Calm Calm - N/A   Clear
7:58 PM 38.7 °F - 35.1 °F 87% 30.30 in 9.0 mi Calm Calm - N/A   Clear
8:58 PM 38.7 °F - 34.5 °F 85% 30.29 in 10.0 mi NE 2.3 mph - N/A   Clear
9:58 PM 36.7 °F - 35.1 °F 94% 30.30 in 10.0 mi WNW 1.2 mph - N/A   Clear
10:58 PM 36.5 °F - 34.3 °F 92% 30.30 in 10.0 mi NNE 1.2 mph - N/A   Clear
11:58 PM 34.2 °F - 33.1 °F 96% 30.29 in 10.0 mi Calm Calm - N/A   Clear